Back to catalog

STARLINK-32526

AliveCommunicationsVLEO
NORAD 62162·PAYLOAD·🇺🇸 United States

Launched Nov 30, 2024 from Cape Canaveral Space Force Station

Loading…

Next Passes (next 24 hours)

TLE

FreshSource: CelesTrak SupGP

Epoch: Sep 14, 2026, 13:45 UTC

1 62162C 24224Z   26257.57340278  .00012005  00000+0  43495-3 0  2571
2 62162  43.0013 174.8048 0001447 264.9207 246.1002 15.27563086    17

Track STARLINK-32526 in real time with AllMySat

Download on the App Store